Showing default

COSMOS 2167, 21781

Orbit data source: Space-Track

COSMOS 2167, 21781 is a payload satellite owned by UNKS RF (CIS) in LEO that was launched on Tue, 12 Nov 1991 UTC via a TSIKLON-3 launch vehicle from the Plesetsk Missile And Space Complex (PKMTR). Payload-class satellites include a variety of spacecraft equipped with specific instruments for various scientific and technological missions. These include communications satellites like Starlink; space stations such as the ISS; scientific satellites like the Hubble; Earth observation satellites from companies like Planet Labs, Umbra, and HawkEye 360; GPS; miniature CubeSats for education and research; and military/defense satellites.

Loading next visibility...
Identifier
21781, 1991-077C
Orbit
LEO
Country
Flag of CISCIS
Related business
Manufacturer
NPO PM
Mission
Defense Communications
Bus & Motor
STRELA-3, Unknown motor
Mass
225 kg wet, 225 kg dry
Launch date (UTC)
1991-11-12 (34 years ago)
Launch vehicle
TSIKLON-3
Launch site
Plesetsk Missile And Space Complex (PKMTR)
Object type
Payload
Rocket body
Debris
Shape & HBR
Cyl, 0.8 m
Radar Cross Section
1.257 m², Large (>1 m²)

Expand to show TLE details & history
Last TLE update: 18 hours ago

TLE from 18 hours ago
0 COSMOS 2167
1 21781U 91077C   26125.85118920  .00000036  00000-0  13617-3 0  9993
2 21781  82.6029 267.7281 0007284 170.4145 357.2676 12.64291179590590
Epoch: 2026-05-05T20:25Z
TLE epoch observation values (Epoch: 2026-05-05T20:25:42.746Z)
Latitude
12.1788°
Longitude
-84.01775°
Altitude
1,401.603 km
Speed
7.163 km/s
True Right ascension
05h 44m 31s
True Declination
12° 06' 50"
Sunlit
Object was in daylight at epoch
Visualization orbit readout
Latitude
Unknown
Longitude
Unknown
Altitude
Unknown
Speed
Unknown
Apparent Right ascension
Unknown
Apparent Declination
Unknown
Sunlit
N/A
Visualization observer readout
Local Sidereal Time
22:22:25
Azimuth
Unknown
Elevation
Unknown
Doppler factor
Unknown
Orbital elements
Apogee altitude
1,408.267 km
Perigee altitude
1,396.932 km
Semi-major axis
7,780.736 km
Eccentricity
0.00073
Inclination
82.6029°
RAAN
267.7281°
Arg. of periapsis
170.4145°
True anomaly
357.26362°
Mean anomaly
357.2676°
Eccentric anomaly
357.26561°
Mean motion
3.16237 °/min
Orbital period
113.84 mins
BSTAR
0.00013617
Loading maneuver chart data...
Computing Atmospheric mass density...
Loading historical data...
Loading historical data...
Loading historical data...
Loading historical data...
Loading historical data...
Loading historical data...
Loading historical data...

Documentation

Showing up to 5 results
|